Weather History for Banff, AB

Change the Weather History Date:

Friday, July 19, 2013

  Actual Average Record
Temperature  
Mean Temperature 61 °F -  
Max Temperature 74 °F - - ()
Min Temperature 48 °F - - ()
Degree Days  
Heating Degree Days 4    
Growing Degree Days 11 (Base 50)    
Moisture  
Dew Point 43 °F    
Average Humidity 53    
Maximum Humidity 80    
Minimum Humidity 28    
Precipitation  
Precipitation 0.00 in - - ()
Sea Level Pressure  
Sea Level Pressure 30.08 in    
Wind  
Wind Speed 4 mph ()    
Max Wind Speed 9 mph    
Max Gust Speed 18 mph    
T = Trace of Precipitation, MM = Missing Value Source: Averaged Metar Reports

Daily Weather History Graph

Daily Weather History Graph

Search for Another Location

Airport:

Trip Planner

Search our weather history database for the weather conditions in past years. The results will help you decide how hot, cold, wet, or windy it might be!

Date:

Astronomy

Jul. 19, 2013 Rise Set
Actual Time 5:49 AM MDT 9:46 PM MDT
Civil Twilight 5:06 AM MDT 10:29 PM MDT
Nautical Twilight 4:05 AM MDT 11:29 PM MDT
Astronomical Twilight 1:55 AM MDT 1:24 AM MDT
Moon 6:52 PM MDT (7/19) 2:37 AM MDT (7/19)
Length of Visible Light 17h 23m
Length of Day
15h 57m
Waxing Gibbous, 87% of the Moon is Illuminated
Jul 19
Waxing Gibbous
Jul 22
Full
Jul 29
Last Quarter
Aug 6
New
Aug 14
First Quarter

Hourly Weather History & Observations

Time (MDT) Temp. Dew Point Humidity Pressure Visibility Wind Dir Wind Speed Gust Speed Precip Events Conditions
12:00 AM 59.7 °F 44.1 °F 56% 30.10 in - SSW 4.6 mph - N/A   Unknown
1:00 AM 56.8 °F 43.3 °F 61% 30.09 in - SW 1.2 mph - N/A   Unknown
2:00 AM 52.5 °F 42.4 °F 69% 30.11 in - WNW 1.2 mph - N/A   Unknown
3:00 AM 50.5 °F 43.7 °F 77% 30.11 in - Calm Calm - N/A   Unknown
4:00 AM 48.7 °F 42.8 °F 80% 30.11 in - SSW 1.2 mph - N/A   Unknown
5:00 AM 50.9 °F 44.4 °F 78% 30.10 in - SW 3.5 mph - N/A   Unknown
6:00 AM 50.0 °F 43.9 °F 79% 30.11 in - SW 3.5 mph - N/A   Unknown
7:00 AM 51.3 °F 45.0 °F 79% 30.12 in - WSW 3.5 mph - N/A   Unknown
8:00 AM 55.0 °F 44.2 °F 67% 30.11 in - WSW 5.8 mph - N/A   Unknown
9:00 AM 59.0 °F 45.5 °F 61% 30.11 in - SW 5.8 mph - N/A   Unknown
10:00 AM 64.9 °F 46.0 °F 50% 30.08 in - WSW 4.6 mph - N/A   Unknown
11:00 AM 71.2 °F 41.4 °F 34% 30.05 in - SW 8.1 mph - N/A   Unknown
12:00 PM 70.5 °F 40.8 °F 34% 30.05 in - WSW 5.8 mph - N/A   Unknown
1:00 PM 63.3 °F 43.7 °F 49% 30.13 in - SW 6.9 mph - N/A   Unknown
2:00 PM 70.7 °F 40.3 °F 33% 30.08 in - SW 5.8 mph - N/A   Unknown
3:00 PM 74.8 °F 40.5 °F 29% 30.04 in - South 6.9 mph - N/A   Unknown
4:00 PM 73.0 °F 37.8 °F 28% 30.04 in - WSW 5.8 mph - N/A   Unknown
5:00 PM 66.7 °F 42.4 °F 41% 30.09 in - SSW 9.2 mph 18.4 mph N/A   Unknown
6:00 PM 68.9 °F 41.5 °F 37% 30.06 in - SW 6.9 mph - N/A   Unknown
7:00 PM 70.9 °F 39.2 °F 32% 30.03 in - SW 9.2 mph - N/A   Unknown
8:00 PM 69.3 °F 38.8 °F 33% 30.04 in - West 5.8 mph - N/A   Unknown
9:00 PM 64.8 °F 43.0 °F 45% 30.04 in - WSW 8.1 mph - N/A   Unknown
10:00 PM 61.0 °F 45.1 °F 56% 30.04 in - WSW 4.6 mph - N/A   Unknown
11:00 PM 58.3 °F 46.0 °F 64% 30.05 in - SW 6.9 mph - N/A   Unknown